Theta_e
310 311 311 310 310 310 310 311 311 311 311 311 312 311 311 311 311 312 312 312 313 316 320 320 321 323 324 322 322 317 317 317 316 315 315 312 312 311 311 312 311 313 313 311 315
310 309 309 308 307 308 309 310 310 310 310 311 312 312 311 310 312 311 311 312 313 314 318 320 321 322 325 324 321 320 319 317 316 316 315 314 312 313 313 313 313 313 312 312 318
309 309 307 306 306 306 306 307 308 308 309 310 312 312 311 311 309 309 312 311 313 315 316 318 320 324 324 323 323 322 322 317 316 315 314 314 314 315 316 316 316 316 314 316 318
309 306 306 305 305 305 305 305 305 306 307 308 311 311 312 309 312 305 315 318 313 315 315 318 320 324 325 326 322 323 321 319 317 315 314 314 314 314 315 316 315 315 316 317 320
308 307 306 305 304 304 304 304 304 305 306 307 310 311 311 310 310 307 312 311 316 314 315 316 320 323 326 325 325 324 323 320 317 316 314 314 314 314 315 315 313 314 315 317 320
307 306 306 305 304 304 304 303 304 305 306 307 308 312 310 310 307 305 307 310 317 314 314 315 316 319 321 321 323 321 321 320 319 318 315 315 315 315 315 315 313 314 316 317 320
306 306 305 304 303 303 302 302 304 305 306 305 306 313 311 309 307 306 306 309 318 315 315 315 317 318 319 320 317 320 319 321 321 318 318 316 318 317 316 315 315 315 316 316 318
306 304 303 302 303 302 301 299 303 303 304 305 310 312 311 308 309 308 308 308 308 316 314 315 316 317 316 314 316 318 319 321 318 318 317 317 321 317 316 316 316 315 316 315 317
302 301 302 302 302 301 302 300 301 302 305 309 313 311 311 308 308 307 308 309 312 316 315 314 316 316 317 316 314 317 317 317 316 317 318 317 318 317 315 317 317 317 316 316 315
302 301 301 301 301 301 299 298 298 301 301 312 311 311 310 309 302 302 302 308 313 316 315 316 316 317 315 316 317 314 316 314 316 314 317 318 318 316 314 314 317 316 316 315 315
301 301 301 301 301 300 298 298 299 301 298 299 299 299 299 300 300 303 299 305 307 314 318 312 317 318 315 315 312 312 312 313 312 313 314 315 315 316 310 310 312 312 311 312 312
300 300 302 301 298 298 298 298 297 297 299 299 299 300 300 300 302 304 302 302 308 313 314 307 313 314 315 313 315 315 314 314 312 310 313 315 316 315 313 309 308 307 306 306 306
300 300 301 297 297 298 298 297 296 296 300 301 301 302 302 302 304 303 303 301 302 307 311 313 313 310 312 313 315 316 316 315 314 311 311 312 313 313 308 303 302 301 301 301 304
300 300 297 295 297 298 298 297 295 296 302 301 300 300 299 302 304 302 302 301 301 303 307 309 310 305 310 314 313 317 314 312 315 313 315 310 315 312 309 306 302 301 301 302 304
297 298 295 295 296 297 296 296 295 298 300 297 298 298 299 302 301 300 301 300 305 305 303 307 304 311 309 309 311 313 310 313 314 315 312 312 313 311 306 307 305 300 299 302 304
296 295 295 296 296 295 294 296 299 302 296 297 297 298 299 297 300 300 300 299 300 305 303 305 303 302 303 305 307 307 307 309 311 314 315 311 311 312 310 308 300 298 299 300 302
295 295 294 295 295 294 295 298 296 296 295 295 297 297 298 297 297 298 300 298 299 302 306 306 305 304 301 304 304 307 308 311 311 312 311 308 310 313 301 296 297 299 298 298 299
294 295 294 294 294 294 296 295 295 295 295 296 296 297 296 296 296 296 297 298 296 299 302 303 305 301 298 305 305 308 308 311 312 311 310 306 312 312 294 293 292 295 297 296 296
294 294 294 294 294 294 296 296 296 296 295 296 295 296 295 296 296 295 296 296 296 296 299 300 303 302 301 302 304 306 309 306 307 302 309 309 303 296 294 295 296 296 295 294 294
295 294 294 293 293 295 296 295 295 295 295 295 295 295 295 294 295 295 296 295 295 295 295 297 301 300 301 300 304 305 304 308 310 311 312 309 306 310 297 297 296 296 295 293 292
294 295 294 294 293 295 295 295 295 294 295 295 295 295 294 294 295 295 296 296 295 295 295 296 298 299 301 300 302 305 306 307 308 308 309 309 310 298 297 296 296 295 294 293 292
294 294 293 293 294 294 294 293 294 294 294 294 295 294 295 295 294 296 297 296 295 294 295 295 295 297 300 297 298 297 298 300 308 307 306 307 306 292 294 295 295 294 294 293 292
295 295 294 293 294 293 293 292 293 293 293 293 295 293 294 295 296 296 296 295 293 294 296 295 294 295 299 299 295 297 297 298 299 300 305 305 304 293 293 294 295 294 294 293 293
295 295 294 293 293 293 292 292 292 292 293 293 294 293 293 293 293 296 294 295 293 294 295 293 293 293 293 293 293 295 296 297 298 304 303 302 297 295 295 294 295 294 293 293 293
295 294 294 294 293 293 292 291 291 292 292 293 292 292 293 291 291 291 292 293 293 293 292 292 293 292 292 292 293 294 294 296 298 297 301 299 299 296 296 295 295 294 293 292 292
295 295 293 293 292 292 291 291 291 291 292 293 292 291 291 291 291 291 290 292 293 292 292 291 292 291 291 291 291 292 293 295 297 297 298 298 298 297 298 296 295 294 293 292 291
294 294 293 292 293 293 291 290 291 290 291 292 292 290 290 292 290 289 289 291 291 290 292 291 292 292 291 290 290 292 292 291 295 294 293 299 298 298 297 296 295 294 292 291 290
Wind_Speed
25 25 27 27 28 28 28 27 27 27 25 23 21 20 19 17 18 18 24 20 24 15 9 13 27 24 28 16 12 8 10 16 21 25 16 8 14 8 3 10 7 8 2 3 8
26 26 27 29 30 30 30 29 29 28 27 26 22 20 18 16 17 28 28 27 29 25 20 22 26 25 16 21 8 14 16 24 20 21 12 13 13 11 8 11 8 6 5 5 14
26 27 28 30 32 33 32 30 30 30 29 26 21 19 16 11 11 10 4 37 26 27 27 21 29 23 24 18 18 19 22 25 24 18 15 14 14 11 10 11 11 14 13 12 15
26 30 30 31 34 35 35 36 33 33 30 26 19 16 11 5 9 2 2 2 36 30 24 23 24 27 19 18 26 16 27 20 23 15 14 16 14 12 14 11 3 6 11 14 17
28 32 31 34 36 37 37 39 38 35 32 27 19 13 8 9 14 12 7 1 21 30 33 26 26 28 25 19 21 22 19 21 18 19 14 15 18 15 16 13 7 10 11 14 14
31 33 33 36 38 41 43 43 40 39 32 23 20 14 13 17 8 8 12 6 20 34 32 29 19 29 17 19 21 11 16 17 19 22 14 18 17 16 16 14 11 10 12 13 16
33 35 38 40 41 44 49 50 43 34 30 26 20 16 16 20 1 7 4 3 15 34 25 35 18 26 12 15 11 21 9 20 23 16 16 15 25 27 20 17 16 14 13 13 14
35 38 43 42 41 44 50 45 38 36 29 17 10 16 9 10 16 15 20 16 13 26 27 31 31 21 12 4 7 21 21 21 14 22 13 17 28 24 21 21 19 20 15 14 15
38 39 39 40 41 46 38 36 31 15 10 5 5 8 7 3 6 11 15 12 11 18 25 17 24 12 17 16 14 15 17 23 22 20 15 23 18 19 10 22 25 25 22 17 15
36 38 38 39 42 37 31 19 17 11 18 2 3 2 4 7 12 21 5 11 7 13 6 13 12 12 17 18 22 19 22 20 24 21 22 19 22 13 12 17 21 21 18 16 14
37 40 39 39 33 23 27 10 9 4 23 7 19 17 19 27 31 9 6 6 4 17 15 3 11 20 26 25 23 17 19 22 17 12 21 26 22 18 10 10 11 11 11 14 14
42 42 37 34 19 23 20 10 12 7 9 13 9 7 15 7 6 11 11 10 13 18 20 2 12 16 18 24 22 18 17 20 6 9 15 18 22 20 16 8 8 9 9 8 8
41 41 35 34 12 17 13 12 16 6 5 7 1 9 8 6 6 11 10 10 21 20 22 24 11 11 8 7 11 12 22 17 13 12 10 10 14 15 10 6 5 3 3 4 6
42 35 33 33 9 19 14 23 23 3 3 10 11 5 12 15 3 15 6 6 8 17 21 17 18 8 15 17 13 15 10 12 10 14 7 15 7 18 15 12 10 7 5 4 6
43 32 31 28 17 13 26 28 14 5 3 17 9 10 19 6 7 15 15 5 2 5 6 7 7 13 11 14 16 9 7 17 11 10 7 10 6 15 8 15 11 7 5 4 6
42 24 28 22 20 21 30 16 3 1 7 10 10 17 19 12 6 8 6 7 3 4 8 5 7 2 7 13 13 8 7 2 10 9 9 16 16 10 8 4 4 5 6 5 5
39 19 28 17 18 37 25 4 1 7 17 15 18 23 13 17 13 16 9 18 10 7 0 6 3 3 2 6 6 11 16 6 6 6 5 15 13 4 4 2 1 7 7 4 5
31 14 29 23 33 30 11 8 11 11 14 18 17 15 11 19 12 13 10 10 13 11 3 7 3 5 3 3 4 16 12 4 5 8 8 6 10 3 2 2 1 5 6 6 6
26 14 25 39 28 19 4 12 6 9 13 13 16 8 12 17 13 12 7 10 10 12 6 7 3 2 3 2 2 4 4 4 4 2 7 7 5 3 4 7 8 8 8 7 7
13 9 26 40 22 9 6 8 5 12 13 10 10 9 14 17 14 14 11 10 10 10 7 7 4 8 2 3 2 3 2 3 3 6 4 5 2 3 7 9 8 8 8 8 9
6 2 27 27 11 8 8 6 5 13 13 8 10 10 12 14 14 8 8 4 12 14 6 8 4 6 4 9 8 1 2 1 2 3 2 5 3 2 6 10 10 9 8 8 10
5 3 25 22 11 5 8 9 11 17 14 8 7 11 11 16 7 5 6 7 12 11 9 8 4 4 6 6 7 15 8 6 3 4 3 2 3 6 6 11 11 11 10 10 10
3 3 11 17 7 11 12 13 12 17 13 10 9 12 15 7 6 4 7 10 12 11 8 7 4 2 0 3 7 7 11 9 4 3 1 2 3 5 10 12 12 13 11 11 11
2 4 4 5 7 9 12 12 17 12 5 9 6 11 13 8 11 9 13 7 10 10 14 3 3 5 4 2 5 6 10 11 6 2 5 3 9 8 11 13 12 12 12 12 11
4 4 4 7 10 11 12 12 16 15 7 11 8 17 11 6 10 12 9 9 4 11 7 4 4 4 4 3 4 6 9 9 8 6 3 6 7 12 12 14 14 13 13 13 11
3 3 2 4 7 9 12 10 14 17 5 10 12 15 7 8 7 11 9 5 4 9 8 6 2 4 3 6 6 3 10 6 4 5 5 9 8 8 11 12 13 14 13 13 11
5 2 1 4 7 8 8 10 12 13 4 4 9 11 6 11 14 11 6 8 4 6 6 4 3 4 2 6 6 1 10 7 4 7 5 4 4 11 14 12 13 13 12 12 11
Wind_Direction
352 351 348 345 341 337 334 330 328 328 325 316 306 303 296 288 281 261 245 226 218 210 183 196 193 191 185 189 208 209 225 223 211 230 226 173 198 180 266 205 199 184 260 63 152
351 350 349 345 340 335 331 328 324 322 320 316 304 301 293 288 276 264 245 229 216 209 204 191 188 185 192 194 193 201 219 221 215 234 221 188 201 182 187 194 201 193 161 134 155
351 350 347 344 338 336 330 324 320 318 315 316 302 298 287 283 295 256 251 227 216 209 206 199 187 185 199 194 195 215 226 217 218 226 224 206 205 177 188 194 206 206 182 158 163
349 349 344 341 338 334 331 326 320 316 311 310 300 294 266 181 265 172 92 194 204 201 202 200 200 195 202 198 203 230 220 234 228 224 213 206 208 206 212 212 194 160 153 164 171
343 343 340 338 336 333 328 324 318 313 308 303 294 275 177 222 245 268 233 194 183 192 199 199 204 201 210 202 207 218 225 223 229 219 218 221 217 214 208 212 145 138 152 170 178
342 339 337 336 334 330 327 323 315 309 307 298 292 262 206 240 277 273 237 217 185 191 197 197 210 207 223 224 203 181 222 231 226 224 220 223 224 212 215 208 188 173 177 177 177
341 338 335 335 333 329 326 321 316 311 304 296 282 222 223 233 300 340 228 268 210 197 195 202 197 200 199 218 217 237 221 231 229 227 218 220 241 227 229 222 211 200 193 183 182
343 339 336 334 331 328 325 323 316 309 302 294 223 195 241 261 265 269 256 265 243 208 210 200 205 215 214 193 201 218 231 233 206 220 204 187 246 221 220 224 217 217 210 198 192
342 340 336 334 330 329 329 319 319 334 327 277 205 193 263 314 262 298 243 236 215 207 206 205 204 203 199 209 210 199 223 225 228 203 207 211 244 233 202 221 232 229 230 220 208
344 343 340 335 332 337 347 350 345 35 359 29 93 226 269 340 343 315 289 224 209 179 181 196 198 205 214 204 215 208 221 225 217 206 214 215 233 227 221 225 222 220 220 212 197
346 345 343 338 343 351 2 3 13 353 351 283 296 300 308 309 304 276 347 205 221 201 204 231 192 207 205 211 222 226 224 229 212 199 208 223 228 222 195 201 202 198 204 208 206
347 347 349 348 3 5 13 31 36 305 308 313 318 288 279 273 298 311 293 238 209 222 216 200 226 220 222 213 211 229 230 225 197 193 212 220 228 223 205 203 193 183 181 189 180
349 351 353 354 332 354 347 20 343 318 276 4 245 313 356 313 322 329 330 234 233 232 223 226 228 203 198 186 198 205 216 209 204 182 213 214 228 216 201 186 156 171 189 196 194
353 352 355 352 348 334 328 331 333 236 276 12 350 339 337 320 357 346 33 313 217 233 229 238 238 258 227 225 193 230 172 165 152 164 194 204 227 206 193 193 194 188 195 193 183
355 355 353 349 326 336 322 321 326 175 36 333 347 331 337 22 306 360 7 4 288 232 193 193 200 204 226 232 204 246 241 207 175 190 178 205 227 232 162 212 202 180 180 170 179
354 359 355 354 339 330 332 332 176 216 2 338 334 342 347 6 23 331 64 44 258 278 213 242 351 13 281 240 217 140 130 259 227 204 214 206 210 213 190 205 142 173 162 151 118
353 3 3 2 334 339 342 307 31 33 341 341 332 337 336 356 14 7 10 38 21 335 124 171 180 38 360 151 172 158 154 164 180 197 216 203 202 101 117 65 160 162 155 131 116
354 1 6 359 348 344 343 54 53 355 352 325 334 337 11 8 1 23 22 30 19 359 324 2 110 353 11 306 207 177 182 211 171 178 162 177 207 148 5 325 194 123 130 119 98
353 10 3 350 351 350 16 46 26 359 332 328 332 354 359 359 347 358 43 24 19 5 353 355 30 251 40 322 262 147 212 96 104 358 167 170 110 119 108 117 129 129 115 98 97
344 334 4 356 0 15 48 73 20 353 335 336 355 356 356 353 351 358 15 17 355 13 352 347 296 26 39 245 111 261 79 170 203 169 156 164 202 100 171 152 140 132 112 105 103
18 24 355 0 20 47 46 17 329 347 354 339 342 339 340 344 332 340 0 54 6 345 358 352 329 354 331 19 358 52 120 348 30 345 185 151 133 70 171 166 150 135 116 106 99
358 36 3 10 43 25 20 353 326 350 354 352 333 350 342 330 323 338 339 17 356 353 355 1 342 9 45 36 55 62 23 5 285 137 54 356 111 351 200 154 143 135 123 111 105
28 328 8 20 36 14 7 358 353 349 356 360 346 354 334 327 316 325 360 356 2 8 14 335 25 312 248 169 30 25 10 1 285 269 122 195 99 73 129 145 143 137 131 124 117
17 10 23 33 30 6 4 5 359 359 2 348 331 353 353 7 6 11 10 1 351 1 9 17 40 33 47 25 328 343 5 1 1 279 140 52 134 150 150 149 148 144 136 132 125
17 46 21 351 3 356 359 4 355 2 342 7 354 6 4 347 346 3 353 342 7 7 9 31 47 15 14 12 8 333 354 0 12 5 322 129 141 162 161 157 151 140 134 128 123
28 356 7 323 323 352 14 1 352 346 323 352 358 346 340 8 349 317 329 357 7 336 4 352 34 349 65 10 1 19 19 359 2 5 67 106 113 144 133 127 138 141 137 129 125
31 28 357 349 351 360 5 334 326 347 302 336 344 338 327 344 323 303 274 297 307 326 348 5 360 354 50 348 317 156 2 334 338 38 354 29 94 138 136 144 148 142 139 134 134